Regional Weather Roundup
Issued by NWS

Home | Current Version | Previous Version | Graphics & Text | Print | Product List | Glossary On
Versions: 1 2 3 4 5 6 7 8 9 10 11 12 13 14 15 16 17 18 19 20 21 22 23 24 25 26 27 28 29 30 31 32 33 34 35 36 37 38 39 40 41 42 43 44 45 46 47 48 49 50
000
ASUS43 KLOT 290203
RWRIL

ILLINOIS REGIONAL WEATHER ROUNDUP
NATIONAL WEATHER SERVICE CHICAGO/ROMEOVILLE IL
900 PM CDT FRI APR 28 2017

NOTE: "FAIR" INDICATES FEW OR NO CLOUDS BELOW 12,000 FEET WITH NO
SIGNIFICANT WEATHER AND/OR OBSTRUCTIONS TO VISIBILITY.

* THESE STATIONS ARE NOT UNDER NWS QUALITY CONTROL. THEY ALSO MAY NOT
  REPORT WEATHER SUCH AS PRECIPITATION OR FOG.

ILZ001-002-007-009-015-016-024-290300-
NORTHWEST ILLINOIS

CITY           SKY/WX    TMP DP  RH WIND       PRES   REMARKS
MOLINE         CLOUDY    49  46  90 NE12      29.91R
STERLING*      CLOUDY    49  48  97 NE9       29.92R
SAVANNA*       DRIZZLE   46  44  96 N10       29.94R
$$

ILZ003-004-008-010-011-017-018-290300-
NORTH CENTRAL ILLINOIS

CITY           SKY/WX    TMP DP  RH WIND       PRES   REMARKS
ROCKFORD       CLOUDY    49  45  86 NE13      29.96R
FREEPORT*      DRIZZLE   44  44  97 N8        29.96R
ROCHELLE*      CLOUDY    50  49  95 NE14      29.91F FOG
DE KALB*       CLOUDY    52  47  84 N10       29.93R
PERU*          CLOUDY    56  52  85 E3        29.90R
$$

ILZ005-006-012>014-019>023-290300-
NORTHEAST ILLINOIS

CITY           SKY/WX    TMP DP  RH WIND       PRES   REMARKS
CHICAGO-OHARE  CLOUDY    50  42  74 NE9       29.94R
CHICAGO-MIDWAY CLOUDY    52  44  74 NE6       29.93R
AURORA         CLOUDY    57  49  74 NE6       29.92R
LANSING*       MOCLDY    49  47  90 N6        29.93R
JOLIET*        CLOUDY    58  54  85 CALM      29.92R
WAUKEGAN       CLOUDY    47  40  76 N5        29.95R
DUPAGE AIRPORT CLOUDY    54  46  74 NE8       29.93R
KANKAKEE*      CLOUDY    55  51  86 CALM      29.91R
WHEELING       CLOUDY    48  42  80 NE7       29.96R
MORRIS*        CLOUDY    58  52  80 CALM      29.91R
NORTHERLY ISL    N/A     47  42  83 MISG        N/A
$$

LMZ740>746-290300-
SOUTHERN LAKE MICHIGAN

STATION/POSITION SKY/WX   TEMP    WIND        PRES    VSBY  WAVE
                          AIR SEA DIR/SP/G                  HT/PER
                          (F)     (DEG/KT/KT) (MB)    (MI)  (FT/S)
SOUTHERN BUOY              42 42   30/  8/ 10 1013.5          0
HARRISON CRIB              47      10/  6/  7   N/A
BURNHAM HARBOR             47      10/  6/  9   N/A
CALUMET HARBOR             47     340/  8/ 10 1012.9R
BURNS HARBOR               49      CALM  /  8 1013.5R
MICHIGAN CITY              48      30/  6/  7   N/A
MICHIGAN CITY 6N           45 46                N/A           1/ 3
ST. JOSEPH                 49 48   30/  6/  8 1014.0R         1/ 3
$$

ILZ025>027-034>036-040-047-049-050-058-095>099-290300-
WEST-CENTRAL ILLINOIS

CITY           SKY/WX    TMP DP  RH WIND       PRES   REMARKS
QUINCY         CLOUDY    56  55  97 E3        29.88R FOG
GALESBURG*     CLOUDY    53  52  98 NE7       29.87R
MACOMB*        CLOUDY    57  55  92 SE6       29.89R
JACKSONVILLE*  CLOUDY    55  54  96 NE6       29.87R FOG
PITTSFIELD*    CLOUDY    56  56  98 CALM      29.88R FOG
$$

ILZ028>032-037-038-041>044-048-051>054-059>061-290300-
CENTRAL ILLINOIS

CITY           SKY/WX    TMP DP  RH WIND       PRES   REMARKS
PONTIAC        CLOUDY    56  56  98 E5        29.92R
BLOOMINGTON    CLOUDY    55  54  96 CALM      29.92R
DECATUR        CLOUDY    56  56 100 E5        29.88R
PEORIA         CLOUDY    58  55  90 E3        29.88R
LACON*         CLOUDY    56  55  95 E5        29.88S
LINCOLN*       CLOUDY    57  56  98 CALM      29.89R FOG
SPRINGFIELD    CLOUDY    57  55  93 N5        29.89R
TAYLORVILLE    CLOUDY    55  55  98 E3        29.87R
$$

ILZ033-039-045-046-055>057-062-063-290300-
EAST-CENTRAL ILLINOIS

CITY           SKY/WX    TMP DP  RH WIND       PRES   REMARKS
CHAMPAIGN      CLOUDY    55  53  93 SE7       29.89R
RANTOUL*       RAIN      57  55  94 CALM      29.91R
MATTOON        CLOUDY    55  55 100 NE6       29.86R
$$

ILZ079-100>102-290300-
SOUTHWEST ILLINOIS

CITY           SKY/WX    TMP DP  RH WIND       PRES   REMARKS
ALTON          CLOUDY    55  55 100 E5        29.85R FOG
BELLEVILLE     CLOUDY    57  57 100 CALM      29.84R FOG
CAHOKIA*       CLOUDY    59  56  89 NE3       29.84R
SPARTA*        LGT RAIN  57  57 100 CALM      29.86R
$$

ILZ064>066-069>071-074>076-080>082-084>086-088>090-092>094-290300-
SOUTH-CENTRAL ILLINOIS

CITY           SKY/WX    TMP DP  RH WIND       PRES   REMARKS
CARBONDALE     CLOUDY    64  64 100 N7        29.82R
CAIRO*         PTCLDY    72  70  93 SE6       29.78F
EFFINGHAM*     CLOUDY    57  57 100 CALM      29.87R
MARION         CLOUDY    66  66 100 CALM      29.82R FOG
MT. VERNON     CLOUDY    58  57  97 N6        29.84R FOG
CENTRALIA*     RAIN      58  58 100 CALM      29.84R
SALEM*         RAIN      58  56  94 E5        29.85R
METROPOLIS*    MOCLDY    73  70  89 SE3       29.81S FOG
$$

ILZ067-068-072-073-078-083-087-091-290300-
SOUTHEAST ILLINOIS

CITY           SKY/WX    TMP DP  RH WIND       PRES   REMARKS
LAWRENCEVILLE  CLOUDY    58  57  97 N6        29.82F
FLORA*         RAIN      58  57  96 N3        29.85R
FAIRFIELD*     CLOUDY    58  58 100 N6        29.82R FOG
HARRISBURG*    LGT RAIN  71  70  97 SW3       29.82R
ROBINSON*      HVY RAIN  56  56  98 CALM      29.84R
CARMI*         CLOUDY    69  69 100 S12       29.81R
$$

ABBREVIATIONS USED IN REMARKS
   TC - TEMPERATURE IN CELSIUS
  WCI - WIND CHILL INDEX
   HX - HEAT INDEX
  VSB - VISIBILITY
$$




USA.gov is the U.S. government's official web portal to all federal, state and local government web resources and services.